This is the latest recevied weather packets stored in our database for station/object N5GC-2. If no packets are shown the sender has not sent any weather packets the latest 10 day(s).
| Time | Temp. | Humidity | Pressure | Rain* | Wind** | Luminosity | Snow |
|---|---|---|---|---|---|---|---|
| 1777396067 | 23.89° C | 87% | - | 0 mm | - | - | - |
| 1777394853 | 23.33° C | 88% | - | 0 mm | - | - | - |
| 1777392425 | 23.89° C | 82% | - | 0 mm | - | - | - |
| 1777389993 | 23.89° C | 80% | - | 0 mm | - | - | - |
| 1777389690 | 23.89° C | 80% | - | 0 mm | - | - | - |
| 1777389387 | 24.44° C | 80% | - | 0 mm | - | - | - |
| 1777389086 | 24.44° C | 80% | - | 0 mm | - | - | - |
| 1777388180 | 23.89° C | 80% | - | 0 mm | - | - | - |
| 1777387876 | 23.89° C | 80% | - | 0 mm | - | - | - |
| 1777386963 | 22.78° C | 82% | - | 0 mm | - | - | - |
| 1777386661 | 22.78° C | 84% | - | 0 mm | - | - | - |
| 1777386357 | 22.78° C | 84% | - | 0 mm | - | - | - |
| 1777386056 | 22.22° C | 84% | - | 0 mm | - | - | - |
| 1777385751 | 22.22° C | 85% | - | 0 mm | - | - | - |
| 1777385449 | 21.67° C | 85% | - | 0 mm | - | - | - |
| 1777384840 | 21.67° C | 86% | - | 0 mm | - | - | - |
| 1777383625 | 20.56° C | 88% | - | 0 mm | - | - | - |
| 1777383321 | 20.56° C | 89% | - | 0 mm | - | - | - |
| 1777383018 | 20° C | 90% | - | 0 mm | - | - | - |
| 1777382410 | 20° C | 93% | - | 0 mm | - | - | - |
| 1777382107 | 19.44° C | 94% | - | 0 mm | - | - | - |
| 1777381804 | 19.44° C | 94% | - | 0 mm | - | - | - |
| 1777379376 | 19.44° C | 95% | - | 0 mm | - | - | - |
| 1777378767 | 19.44° C | 96% | - | 0 mm | - | - | - |
| 1777378160 | 18.89° C | 96% | - | 0 mm | - | - | - |
* Rain latest hour (hover to see other rain measurements)
** Current wind speed in m/s (hover to see current wind gust speed)